This demonstration page uses our WeatherBlox Daily Observations layout. Learn more.

Left ArrowRight Arrow

44.89941, -97.11507

Hourly Observations for February 27, 2021

Temp ( °F °C ) Dew Point ( °F °C ) Humidity (%) Winds ( mph kmh ) Pressure ( in mb ) Visibility ( mi km ) Precip ( " mm )
12:53 am 00:53 Clear 30 -1.1 23 -5 75 75 WSW 9 15 29.70 1006 10 16 0.00 0.00
1:53 am 01:53 Clear 28 -2.2 22 -5.6 78 78 SW 9 15 29.71 1006 10 16 0.00 0.00
2:53 am 02:53 Clear 27 -2.8 20 -6.7 75 75 WNW 3 6 29.71 1006 10 16 0.00 0.00
3:53 am 03:53 Clear 24 -4.4 19 -7.2 81 81 S 7 11 29.74 1007 10 16 0.00 0.00
4:53 am 04:53 Clear 22 -5.6 18 -7.8 85 85 Calm 29.77 1008 10 16 0.00 0.00
5:53 am 05:53 Clear 21 -6.1 17 -8.3 85 85 Calm 29.80 1009 10 16 0.00 0.00
6:53 am 06:53 Clear 19 -7.2 17 -8.3 92 92 Calm 29.83 1010 10 16 0.00 0.00
7:53 am 07:53 Sunny 25 -3.9 21 -6.1 85 85 Calm 29.85 1011 10 16 0.00 0.00
8:53 am 08:53 Sunny 30 -1.1 22 -5.6 72 72 Calm 29.87 1012 10 16 0.00 0.00
9:53 am 09:53 Sunny 35 1.7 24 -4.4 64 64 Calm 29.88 1012 10 16 0.00 0.00
10:53 am 10:53 Sunny 37 2.8 26 -3.3 65 65 S 5 7 29.91 1013 10 16 0.00 0.00
11:53 am 11:53 Sunny 39 3.9 27 -2.8 62 62 SSE 6 9 29.92 1013 10 16 0.00 0.00
12:53 pm 12:53 Sunny 42 5.6 29 -1.7 60 60 SE 5 7 29.91 1013 10 16 0.00 0.00
1:53 pm 13:53 Sunny 44 6.7 28 -2.2 53 53 SE 7 11 29.89 1012 10 16 0.00 0.00
2:53 pm 14:53 Sunny 38 3.3 30 -1.1 73 73 ENE 14 22 29.89 1012 10 16 0.00 0.00
3:53 pm 15:53 Sunny 32 0 28 -2.2 85 85 ENE 13 20 29.92 1013 10 16 0.00 0.00
4:40 pm 16:40 Partly Cloudy with Mist and Fog 30 -1.1 28 -2.2 92 92 NE 14 22 29.94 1014 6 10 0.00 0.00
4:53 pm 16:53 Mostly Cloudy with Mist and Fog 29 -1.7 28 -2.2 96 96 ENE 15 24 29.93 1013 5 8 0.00 0.00
5:04 pm 17:04 Cloudy with Mist and Fog 29 -1.7 28 -2.2 96 96 ENE 12 19 29.95 1014 5 8 0.00 0.00
5:22 pm 17:22 Cloudy with Mist and Fog 28 -2.2 27 -2.8 96 96 NE 13 20 29.95 1014 2 3 0.00 0.00
5:30 pm 17:30 Cloudy with Mist and Fog 27 -2.8 26 -3.3 96 96 NE 16 26 29.97 1015 1 2 0.00 0.00
5:43 pm 17:43 Cloudy with Mist and Fog 27 -2.8 27 -2.8 100 100 NE 14 22 29.97 1015 2 2 0.00 0.00
5:53 pm 17:53 Cloudy with Mist and Fog 27 -2.8 26 -3.3 96 96 NE 15 24 29.94 1014 1 2 0.00 0.00
6:03 pm 18:03 Cloudy with Freezing Fog 26 -3.3 26 -3.3 100 100 NE 15 24 29.97 1015 1 1 0.00 0.00
6:20 pm 18:20 Cloudy with Mist and Fog 26 -3.3 26 -3.3 100 100 NE 17 28 29.98 1015 2 2 0.00 0.00
6:34 pm 18:34 Cloudy with Mist and Fog 26 -3.3 26 -3.3 100 100 NE 10 17 29.99 1016 1 2 0.00 0.00
6:40 pm 18:40 Cloudy with Mist and Fog 26 -3.3 25 -3.9 96 96 NE 12 19 29.99 1016 2 3 0.00 0.00
6:51 pm 18:51 Cloudy with Mist and Fog 27 -3 25 -4 93 93 NE 14 22 30.00 1016 3 5 0.00 0.00
6:53 pm 18:53 Cloudy with Mist and Fog 26 -3.3 25 -3.9 96 96 NE 14 22 29.98 1015 3 5 0.00 0.00
7:03 pm 19:03 Cloudy with Mist and Fog 25 -3.9 25 -3.9 100 100 NE 12 19 30.02 1017 3 4 0.00 0.00
7:16 pm 19:16 Cloudy with Mist and Fog 25 -3.9 25 -3.9 100 100 NE 14 22 30.03 1017 3 5 0.00 0.00
7:53 pm 19:53 Cloudy with Mist and Fog 24 -4.4 24 -4.4 100 100 ENE 12 19 29.99 1016 4 6 0.00 0.00
8:53 pm 20:53 Cloudy 24 -4.4 23 -5 96 96 ENE 8 13 30.01 1016 9 14 0.00 0.00
9:53 pm 21:53 Cloudy 22 -5.6 22 -5.6 100 100 NE 12 19 30.01 1016 8 13 0.00 0.00
10:25 pm 22:25 Cloudy with Light Snow 22 -5.6 21 -6.1 96 96 NE 10 17 30.06 1018 2 3 0.00 0.00
10:33 pm 22:33 Cloudy with Light Snow 21 -6.1 20 -6.7 96 96 NNE 12 19 30.06 1018 2 3 0.00 0.00
10:43 pm 22:43 Cloudy with Light Snow 21 -6.1 20 -6.7 96 96 NNE 13 20 30.06 1018 2 3 0.00 0.00
10:53 pm 22:53 Cloudy with Light Snow 21 -6.1 20 -6.7 96 96 NNE 13 20 30.00 1016 2 3 0.00 0.00
11:15 pm 23:15 Cloudy with Light Snow 20 -6.7 19 -7.2 96 96 NNE 15 24 30.06 1018 1 2 0.00 0.00
11:33 pm 23:33 Cloudy with Light Snow 20 -6.7 18 -7.8 92 92 NNE 12 19 30.05 1018 2 2 0.00 0.00
11:53 pm 23:53 Cloudy with Light Snow 20 -6.7 18 -7.8 92 92 NNE 14 22 29.98 1015 2 2 0.00 0.00

Powered by AerisWeather